This is the latest recevied weather packets stored in our database for station/object KD5VOO. If no packets are shown the sender has not sent any weather packets the latest 10 day(s).
| Time | Temp. | Humidity | Pressure | Rain* | Wind** | Luminosity | Snow |
|---|---|---|---|---|---|---|---|
| 1777643639 | 17.22° C | 79% | 1009.9 hPa | 0 mm | - | 25 W/m² | - |
| 1777643336 | 17.22° C | 79% | 1009.9 hPa | 0 mm | - | 20 W/m² | - |
| 1777643032 | 17.22° C | 79% | 1009.9 hPa | 0 mm | - | 21 W/m² | - |
| 1777642729 | 17.22° C | 79% | 1009.9 hPa | 0 mm | - | 32 W/m² | - |
| 1777642426 | 17.22° C | 79% | 1009.9 hPa | 0 mm | - | 31 W/m² | - |
| 1777642122 | 17.22° C | 79% | 1009.5 hPa | 0 mm | - | 31 W/m² | - |
| 1777641818 | 17.22° C | 79% | 1009.5 hPa | 0 mm | - | 25 W/m² | - |
| 1777641514 | 17.22° C | 79% | 1009.2 hPa | 0 mm | - | 13 W/m² | - |
| 1777641209 | 17.22° C | 79% | 1009.2 hPa | 0 mm | - | 20 W/m² | - |
| 1777640906 | 17.22° C | 79% | 1009.5 hPa | 0 mm | - | 12 W/m² | - |
| 1777640603 | 17.22° C | 79% | 1009.5 hPa | 0 mm | - | 11 W/m² | - |
| 1777640299 | 17.22° C | 79% | 1009.9 hPa | 0 mm | - | 11 W/m² | - |
| 1777639995 | 17.22° C | 79% | 1009.9 hPa | 0 mm | - | 9 W/m² | - |
| 1777639693 | 17.22° C | 79% | 1010.2 hPa | 0 mm | - | 6 W/m² | - |
| 1777639391 | 17.22° C | 79% | 1010.2 hPa | 0 mm | - | 3 W/m² | - |
| 1777639090 | 17.22° C | 79% | 1009.9 hPa | 0 mm | - | 3 W/m² | - |
| 1777638789 | 17.22° C | 79% | 1009.9 hPa | 0 mm | - | 4 W/m² | - |
| 1777638483 | 17.78° C | 79% | 1009.9 hPa | 0 mm | - | 3 W/m² | - |
| 1777638181 | 17.78° C | 79% | 1009.9 hPa | 0 mm | - | 2 W/m² | - |
| 1777637876 | 17.78° C | 79% | 1009.5 hPa | 0 mm | - | 2 W/m² | - |
| 1777637573 | 17.78° C | 79% | 1009.2 hPa | 0 mm | - | 2 W/m² | - |
| 1777637270 | 17.78° C | 79% | 1008.8 hPa | 0 mm | - | 1 W/m² | - |
| 1777636967 | 17.78° C | 79% | 1008.8 hPa | 0 mm | - | 0 W/m² | - |
| 1777636663 | 17.78° C | 79% | 1008.8 hPa | 0 mm | - | 0 W/m² | - |
| 1777636359 | 17.78° C | 79% | 1008.8 hPa | 0 mm | - | 0 W/m² | - |
* Rain latest hour (hover to see other rain measurements)
** Current wind speed in m/s (hover to see current wind gust speed)